Starlink 32496

operational
NORAD ID: 62051 Int'l Des: 2024-216 Owner: SPXS Country: US Constellation: starlink
LEOCIRCULAR

关于 Starlink 32496

正在加载描述...

实时位置

正在加载3D地球...

即将过境

高度历史

Altitude vs Time

uPlot chart will show altitude changes over time

两行轨道根数

1 62051U 24216V 25353.42072209 .00008578 00000-0 32082-3 0 9999
2 62051 43.0006 357.0661 0001272 255.5774 104.4937 15.27584886 61519
Epoch: Dec 19, 2025 • Age: 12 hours

当前状态

高度 482.9 km
速度 7.63 km/s
星下点 -2.45°S, 119.93°E
发射日期 Nov 21, 2024
运行时间 1 years
类型 internet

技术详情

分类 Payload
质量 730.00 kg
干质量 700.00 kg
总质量 730.00 kg
长度 0.30 m
直径 4.10 m
跨度 29.00 m
形状 Box + pan
制造商 SPXS
平台类型 Starlink V2M
阶段状态 In Orbit
所有者/国家 SPXS/US

大型星座

Loading constellations...